Location: Aldenham
(51.6667°N, 0.3500°W)
Time: 00:39:06
(UTC+00:00)

Altair - Pass Details

Date: 22 February 2026
Orbit: 1502 x 1682 km, 47.2° (Epoch: 10 March)

Event Time Altitude Azimuth Distance (km) Brightness Sun altitude
Rises 01:19:35 0° 176° (S) 4,624 - -46.5°
Reaches altitude 10° 01:24:39 10° 152° (SSE) 3,646 - -46.2°
Maximum altitude 01:28:38 14° 126° (SE) 3,373 - -45.9°
Exits shadow 01:31:25 12° 107° (ESE) 3,525 9.4 -45.7°
Drops below altitude 10° 01:32:38 10° 99° (E) 3,674 9.6 -45.7°
Sets 01:37:45 0° 76° (ENE) 4,686 10.5 -45.3°
